[[{"header":{"parameterUnit":"m.s-1","parameterCategory":1,"la1":30.2991,"la2":30.254,"lo1":-89.0895,"lo2":-89.0444,"dy":0.0017,"dx":0.0017,"nx":28,"ny":28,"refTime":"2024-06-19T09:00:00:Z","depth":0,"parameterNumber":2,"parameterNumberName":"U-component_of_WINDS"},"data":[0,0,0,0,0,0,0,0,0,0,0,0,0,0,0,0,0,0,0,0,0,0,0,0,0,0,0,0,0,0,0,0,0,0,0,0,0,0,0,0,0,0,0,0,0,0,0,0,0,0,0,0,0,0,0,0,0,0,-10.2229,-10.2229,0,-10.2249,-10.225,-10.225,-10.2041,-10.2035,-10.203,-10.2024,-10.2046,-10.2052,-10.2058,0,0,0,0,0,0,0,0,0,0,0,0,0,-10.2011,-10.2016,-10.2229,-10.2229,-10.2229,-10.2249,-10.225,-10.225,-10.2042,-10.2035,-10.2028,-10.2021,-10.2044,-10.2051,-10.2058,0,0,0,0,0,0,0,0,0,0,0,0,0,-10.2076,-10.2018,-10.2229,-10.2128,-10.2119,-10.2249,-10.225,-10.225,-10.2044,-10.2035,-10.2026,-10.2018,-10.2042,-10.205,-10.2059,-10.2287,0,0,-10.2086,-10.209,0,0,0,0,0,0,0,0,-10.2073,-10.2085,-10.2142,-10.2135,-10.2125,-10.2134,-10.2181,-10.2262,-10.2046,-10.2072,-10.2024,-10.2014,-10.2082,-10.2087,-10.211,-10.2288,-10.2289,-10.2087,-10.2093,-10.2096,-10.2099,0,0,0,0,0,0,0,-10.2069,-10.2082,-10.2237,-10.2144,-10.2133,-10.2082,-10.2082,-10.2195,-10.2125,-10.2069,-10.2054,-10.2059,-10.2076,-10.2102,-10.2109,-10.2289,-10.2087,-10.2095,-10.21,-10.2104,-10.2657,-10.2666,0,0,0,0,0,0,-10.2078,-10.208,-10.2236,-10.2237,-10.2077,-10.2093,-10.2093,-10.214,-10.2124,-10.2113,-10.2067,-10.205,-10.2091,-10.2099,-10.2109,-10.2375,-10.2096,-10.2105,-10.211,-10.2648,-10.2659,-10.2669,0,0,0,0,0,0,-10.2074,-10.2093,-10.2235,-10.2155,-10.2169,-10.2106,-10.2161,-10.2145,-10.217,-10.2122,-10.2108,-10.2106,-10.2085,-10.2096,-10.2245,-10.2373,-10.2109,-10.2117,-10.2636,-10.2651,-10.2664,-10.2909,0,0,0,0,0,0,-10.2068,-10.2093,-10.2179,-10.2158,-10.2174,-10.2371,-10.2168,-10.2151,-10.2186,-10.2164,-10.2155,-10.2145,-10.2079,-10.2232,-10.2254,-10.238,-10.2124,-10.2625,-10.2643,-10.2659,-10.2889,-10.2929,-10.2964,0,0,0,0,0,-10.2061,-10.2247,-10.2184,-10.2204,-10.2279,-10.2378,-10.2387,-10.2306,-10.2198,-10.2283,-10.2252,-10.2146,-10.2356,-10.2249,-10.2271,-10.2403,-10.2616,-10.2638,-10.2658,-10.2872,-10.2922,-10.2963,0,0,0,0,0,0,-10.2283,-10.2242,-10.2172,-10.2356,-10.2373,-10.2343,-10.2448,-10.2361,-10.2409,-10.2386,-10.2284,-10.2284,-10.2449,-10.2441,-10.2323,-10.2623,-10.2467,-10.2493,-10.2622,-10.2669,-10.2706,-10.2703,-10.2131,0,0,0,0,0,-10.2354,-10.2437,-10.2397,-10.2563,-10.2575,-10.2511,-10.2551,-10.2488,-10.25,-10.2506,-10.2486,-10.2503,-10.2572,-10.262,-10.2682,-10.2888,-10.2883,-10.2989,-10.3027,-10.3058,-10.3081,-10.3191,-10.3237,-10.2738,-10.2738,-10.2737,0,0,-10.25,-10.2488,-10.2546,-10.2608,-10.2612,-10.2702,-10.2518,-10.262,-10.2685,-10.2521,-10.266,-10.2647,-10.2659,-10.2837,-10.2915,-10.2835,-10.3219,-10.3085,-10.311,-10.3116,-10.3217,-10.3264,-10.3307,-10.2752,-10.275,-10.2747,0,0,-10.2811,-10.2811,-10.2949,-10.2959,-10.2969,-10.2926,-10.296,-10.2944,-10.2929,-10.3066,-10.2946,-10.3023,-10.3145,-10.3159,-10.3182,-10.3503,-10.3407,-10.3526,-10.3722,-10.383,-10.3869,-10.3903,-10.4018,-10.406,-10.355,-10.3551,-10.3551,0,-10.2991,-10.312,-10.3032,-10.3142,-10.3173,-10.303,-10.3171,-10.3184,-10.3215,-10.324,-10.3151,-10.3302,-10.33,-10.348,-10.3559,-10.3583,-10.3619,-10.3525,-10.387,-10.3904,-10.3935,-10.4043,-10.4086,-10.3565,-10.3564,-10.3562,-10.3561,0,-10.3341,-10.3433,-10.3544,-10.3577,-10.3621,-10.3746,-10.3678,-10.3733,-10.3667,-10.3634,-10.3777,-10.377,-10.3828,-10.3867,-10.3803,-10.4039,-10.399,-10.3888,-10.3728,-10.3998,-10.4098,-10.4139,-10.3586,-10.3581,-10.3576,-10.3573,0,0,-10.3789,-10.3774,-10.3817,-10.3831,-10.3833,-10.3903,-10.4023,-10.408,-10.4129,-10.4156,-10.4254,-10.4363,-10.4269,-10.4295,-10.4233,-10.4328,-10.4583,-10.4213,-10.4212,-10.4282,-10.4843,-10.4919,-10.4968,-10.452,-10.4528,-10.4534,-10.4842,0,-10.4092,-10.4294,-10.422,-10.4428,-10.4512,-10.438,-10.4484,-10.4498,-10.4471,-10.4539,-10.4509,-10.4588,-10.4458,-10.4473,-10.4562,-10.4533,-10.4694,-10.451,-10.4611,-10.4615,-10.461,-10.502,-10.51,-10.539,-10.488,-10.4887,-10.4891,0,-10.4471,-10.4514,-10.4731,-10.4721,-10.4753,-10.4848,-10.4895,-10.4963,-10.4976,-10.495,-10.4982,-10.49,-10.5017,-10.4861,-10.5022,-10.4899,-10.4936,-10.4929,-10.4938,-10.4943,-10.4768,-10.5035,-10.5481,-10.5525,-10.4952,-10.4947,-10.4943,0,-10.4776,-10.4888,-10.5032,-10.5049,-10.5041,-10.5111,-10.5111,-10.5116,-10.5156,-10.5198,-10.5223,-10.5279,-10.5309,-10.5355,-10.529,-10.5182,-10.5462,-10.5299,-10.5443,-10.5445,-10.5506,-10.5503,-10.5963,-10.5534,-10.5533,-10.5532,-10.5531,0,-10.5121,-10.5258,-10.5169,-10.5258,-10.5409,-10.5323,-10.5475,-10.5461,-10.5467,-10.5551,-10.5441,-10.5523,-10.5433,-10.5507,-10.5458,-10.5599,-10.5614,-10.5596,-10.5581,-10.5605,-10.5608,-10.5627,-10.5604,-10.5543,-10.5541,-10.5539,-10.5537,0,-10.5485,-10.5431,-10.558,-10.5561,-10.5559,-10.5672,-10.5655,-10.5737,-10.5704,-10.5812,-10.5833,-10.5781,-10.5862,-10.5803,-10.5883,-10.585,-10.6036,-10.5994,-10.6032,-10.602,-10.6167,-10.6154,-10.6655,-10.6716,-10.6248,-10.6253,-10.6257,0,-10.5708,-10.5811,-10.5804,-10.5852,-10.5859,-10.5939,-10.5979,-10.59,-10.5947,-10.5973,-10.6052,-10.6124,-10.6177,-10.6313,-10.6283,-10.6345,-10.6302,-10.6474,-10.631,-10.6332,-10.6304,-10.6298,-10.6308,-10.6506,-10.6512,-10.6516,-10.652,0,-10.6109,-10.6078,-10.614,-10.6195,-10.6246,-10.6286,-10.6316,-10.6362,-10.6282,-10.6341,-10.6423,-10.6464,-10.6547,-10.6621,-10.6672,-10.6672,-10.6584,-10.6572,-10.6608,-10.6633,-10.6651,-10.6643,-10.612,-10.656,-10.6556,-10.6553,-10.6551,-10.6549,-10.6408,-10.6494,-10.6503,-10.6577,-10.6592,-10.6623,-10.6699,-10.6676,-10.6743,-10.6804,-10.6754,-10.6853,-10.6866,-10.6926,-10.6938,-10.7014,-10.6944,-10.6997,-10.701,-10.7024,-10.7044,-10.6641,-10.7023,-10.7022,-10.7021,-10.702,-10.7019,0,-10.6802,-10.6802,-10.6871,-10.6918,-10.6977,-10.6889,-10.6919,-10.6974,-10.7062,-10.7082,-10.7137,-10.7233,-10.7304,-10.7281,-10.7344,-10.741,-10.7372,-10.743,-10.7423,-10.7425,-10.7104,-10.7066,-10.746,-10.746,-10.746,-10.746,-10.746,-10.746,-10.7014,-10.7155,-10.7126,-10.7274,-10.7272,-10.7368,-10.7392,-10.7421,-10.7437,-10.7548,-10.7607,-10.7592,-10.7595,-10.7658,-10.7721,-10.7712,-10.774,-10.7813,-10.779,-10.7491,-10.7447,-10.7406,-10.7369,-10.7821,-10.7821,-10.8104,-10.8107,-10.8109]},{"header":{"parameterUnit":"m.s-1","parameterCategory":1,"la1":30.2991,"la2":30.254,"lo1":-89.0895,"lo2":-89.0444,"dy":0.0017,"dx":0.0017,"nx":28,"ny":28,"refTime":"2024-06-19T09:00:00:Z","depth":0,"parameterNumber":3,"parameterNumberName":"V-component_of_WINDS"},"data":[0,0,0,0,0,0,0,0,0,0,0,0,0,0,0,0,0,0,0,0,0,0,0,0,0,0,0,0,0,0,0,0,0,0,0,0,0,0,0,0,0,0,0,0,0,0,0,0,0,0,0,0,0,0,0,0,0,0,0.2232,0.2233,0,0.2281,0.2281,0.2282,0.2342,0.2343,0.2343,0.2344,0.2389,0.239,0.239,0,0,0,0,0,0,0,0,0,0,0,0,0,0.219,0.219,0.2232,0.2233,0.2233,0.228,0.2281,0.2282,0.2341,0.2343,0.2344,0.2345,0.2389,0.2389,0.239,0,0,0,0,0,0,0,0,0,0,0,0,0,0.222,0.2191,0.2232,0.2269,0.2273,0.228,0.2281,0.2282,0.2341,0.2343,0.2344,0.2345,0.2389,0.2389,0.239,0.2364,0,0,0.2391,0.2391,0,0,0,0,0,0,0,0,0.2218,0.2222,0.2263,0.2266,0.2271,0.2307,0.2283,0.2309,0.2341,0.2315,0.2344,0.2346,0.236,0.2363,0.2369,0.2366,0.2368,0.2391,0.2392,0.2392,0.2392,0,0,0,0,0,0,0,0.2216,0.222,0.2251,0.2263,0.2268,0.2283,0.2288,0.2288,0.2329,0.2317,0.2322,0.2327,0.2363,0.2368,0.237,0.2368,0.2391,0.2392,0.2392,0.2392,0.2348,0.2347,0,0,0,0,0,0,0.2209,0.2218,0.225,0.2253,0.2248,0.2282,0.2289,0.2294,0.2329,0.2336,0.2326,0.233,0.2367,0.237,0.2372,0.2345,0.2392,0.2392,0.2392,0.235,0.2348,0.2346,0,0,0,0,0,0,0.2208,0.2211,0.2248,0.2237,0.2242,0.2281,0.2286,0.2294,0.2299,0.2335,0.2343,0.2324,0.2368,0.2372,0.2366,0.2347,0.2392,0.2393,0.2351,0.2349,0.2347,0.2288,0,0,0,0,0,0,0.2206,0.221,0.2201,0.2236,0.2243,0.2241,0.2285,0.2294,0.2301,0.2306,0.2336,0.2342,0.2369,0.2365,0.2367,0.2348,0.2393,0.2353,0.235,0.2348,0.2292,0.2284,0.2278,0,0,0,0,0,0.2205,0.2181,0.22,0.2204,0.2232,0.224,0.2244,0.2277,0.2299,0.229,0.2313,0.2341,0.2349,0.2364,0.2366,0.2348,0.2354,0.2351,0.2348,0.2295,0.2286,0.2278,0,0,0,0,0,0,0.214,0.2186,0.2208,0.2195,0.2214,0.225,0.2239,0.2266,0.2277,0.2281,0.2321,0.2328,0.2317,0.2332,0.2348,0.2325,0.2356,0.2353,0.2315,0.2307,0.23,0.2295,0.2393,0,0,0,0,0,0.2125,0.2129,0.2169,0.2153,0.2162,0.2199,0.2204,0.2228,0.2248,0.2256,0.2279,0.2296,0.2303,0.2306,0.2314,0.2296,0.2303,0.2284,0.2277,0.2271,0.2267,0.226,0.2252,0.2336,0.2336,0.2336,0,0,0.2093,0.2119,0.2118,0.2141,0.2158,0.2161,0.2205,0.2205,0.2207,0.2255,0.2252,0.227,0.2292,0.228,0.2276,0.2292,0.2247,0.2267,0.2262,0.2262,0.2256,0.2248,0.2241,0.2334,0.2334,0.2334,0,0,0.2035,0.2055,0.2045,0.2062,0.2089,0.2114,0.2112,0.2146,0.216,0.2158,0.2195,0.2198,0.2208,0.2223,0.2232,0.2184,0.221,0.2185,0.2147,0.2139,0.2133,0.2127,0.2109,0.2103,0.2182,0.2182,0.2182,0,0.1991,0.1997,0.2036,0.2035,0.2045,0.2092,0.2082,0.2096,0.2123,0.2128,0.2147,0.2163,0.2181,0.2174,0.2163,0.2168,0.2167,0.2181,0.2131,0.2125,0.2121,0.2104,0.2098,0.2179,0.2179,0.2179,0.218,0,0.1941,0.1945,0.1934,0.1961,0.197,0.1964,0.2003,0.2007,0.2032,0.2055,0.2053,0.2078,0.2092,0.2093,0.2116,0.2089,0.2099,0.2124,0.2155,0.2109,0.2094,0.2088,0.2174,0.2175,0.2176,0.2177,0,0,0.184,0.1893,0.1888,0.1902,0.1936,0.1939,0.1937,0.1953,0.1956,0.1974,0.1972,0.1982,0.2006,0.2016,0.2042,0.2035,0.1996,0.2061,0.2063,0.2048,0.1969,0.1949,0.1941,0.2015,0.2014,0.2013,0.1967,0,0.1788,0.1787,0.1824,0.1812,0.1817,0.1864,0.1862,0.1882,0.1905,0.1912,0.1937,0.1943,0.1974,0.1981,0.1977,0.2002,0.1981,0.2006,0.2013,0.2012,0.2004,0.1933,0.1912,0.1866,0.1961,0.196,0.196,0,0.1725,0.1742,0.1732,0.1769,0.1772,0.177,0.1789,0.1795,0.182,0.1837,0.1851,0.1881,0.1881,0.1913,0.1913,0.193,0.1935,0.1949,0.1948,0.1948,0.1982,0.193,0.1853,0.1845,0.1951,0.1952,0.1953,0,0.1652,0.1673,0.1669,0.168,0.1723,0.1721,0.1738,0.1765,0.1773,0.179,0.1796,0.1812,0.182,0.1832,0.1866,0.1886,0.1863,0.1897,0.1876,0.1875,0.1866,0.1866,0.1787,0.1873,0.1873,0.1873,0.1873,0,0.1588,0.158,0.1638,0.1635,0.1627,0.1671,0.1662,0.1684,0.1709,0.1711,0.1753,0.1754,0.1801,0.1807,0.1834,0.1831,0.1834,0.1847,0.1854,0.1843,0.1841,0.1845,0.1849,0.1871,0.1872,0.1872,0.1872,0,0.1504,0.1542,0.1542,0.1585,0.1595,0.1588,0.1624,0.1623,0.1651,0.1654,0.1657,0.1699,0.1709,0.1746,0.1764,0.1783,0.177,0.1784,0.1762,0.1766,0.1743,0.1744,0.1662,0.1653,0.1745,0.1744,0.1744,0,0.1459,0.1455,0.1498,0.1504,0.152,0.1529,0.1539,0.1582,0.1591,0.1621,0.1617,0.1631,0.1644,0.1659,0.169,0.1705,0.172,0.169,0.1722,0.1711,0.1718,0.1717,0.1717,0.1682,0.1681,0.168,0.1679,0,0.1377,0.1397,0.141,0.143,0.1442,0.1459,0.1479,0.1481,0.153,0.1537,0.155,0.1561,0.1582,0.1595,0.1616,0.1634,0.1664,0.167,0.1666,0.1653,0.1639,0.1646,0.1741,0.1671,0.1671,0.1672,0.1673,0.1673,0.1311,0.1309,0.134,0.1354,0.1374,0.1393,0.1395,0.1424,0.1436,0.1457,0.1483,0.1492,0.152,0.1551,0.1567,0.1575,0.1591,0.1585,0.1583,0.1581,0.1575,0.164,0.1579,0.1579,0.1579,0.158,0.158,0,0.123,0.1253,0.1265,0.1293,0.1304,0.1336,0.136,0.1367,0.1375,0.1399,0.1413,0.1428,0.1442,0.1477,0.1494,0.1494,0.1508,0.1497,0.1496,0.15,0.156,0.1561,0.1485,0.1485,0.1485,0.1485,0.1485,0.1485,0.1188,0.1188,0.1212,0.1223,0.1246,0.1257,0.1268,0.1286,0.1306,0.1321,0.1334,0.1357,0.1386,0.1406,0.1421,0.143,0.1434,0.1418,0.1432,0.1486,0.1495,0.1504,0.1506,0.1419,0.1419,0.1371,0.1371,0.1371]}]]